TimeCST,TemperatureF,Dew PointF,Humidity,Sea Level PressureIn,VisibilityMPH,Wind Direction,Wind SpeedMPH,Gust SpeedMPH,PrecipitationIn,Events,Conditions,WindDirDegrees,DateUTC
12:12 AM,30.0,23.7,77,30.13,10.0,Calm,Calm,-,N/A,,Clear,0,2013-12-01 06:12:00
12:32 AM,29.3,23.5,79,30.13,10.0,Calm,Calm,-,N/A,,Clear,0,2013-12-01 06:32:00
12:52 AM,29.1,23.5,80,30.13,10.0,Calm,Calm,-,N/A,,Clear,0,2013-12-01 06:52:00
1:12 AM,28.0,23.0,81,30.13,7.0,Calm,Calm,-,N/A,,Clear,0,2013-12-01 07:12:00
1:32 AM,27.0,22.8,84,30.14,7.0,Calm,Calm,-,N/A,,Clear,0,2013-12-01 07:32:00
1:52 AM,26.4,22.5,85,30.14,7.0,Calm,Calm,-,N/A,,Scattered Clouds,0,2013-12-01 07:52:00
2:12 AM,28.2,23.0,81,30.15,7.0,Calm,Calm,-,N/A,,Scattered Clouds,0,2013-12-01 08:12:00
2:32 AM,27.5,22.6,82,30.14,7.0,Calm,Calm,-,N/A,,Clear,0,2013-12-01 08:32:00
2:52 AM,27.1,23.0,84,30.14,7.0,Calm,Calm,-,N/A,,Clear,0,2013-12-01 08:52:00
3:12 AM,24.4,20.8,86,30.14,7.0,Calm,Calm,-,N/A,,Clear,0,2013-12-01 09:12:00
3:32 AM,23.7,21.0,89,30.14,5.0,Calm,Calm,-,N/A,,Scattered Clouds,0,2013-12-01 09:32:00
3:52 AM,24.4,22.1,91,30.14,5.0,Calm,Calm,-,N/A,,Scattered Clouds,0,2013-12-01 09:52:00
4:12 AM,22.3,19.8,90,30.13,5.0,Calm,Calm,-,N/A,,Clear,0,2013-12-01 10:12:00
4:32 AM,22.8,21.0,93,30.15,5.0,Calm,Calm,-,N/A,,Clear,0,2013-12-01 10:32:00
4:52 AM,20.7,18.3,91,30.15,5.0,West,3.5,-,N/A,,Clear,270,2013-12-01 10:52:00
5:12 AM,21.2,18.9,91,30.15,5.0,Calm,Calm,-,N/A,,Clear,0,2013-12-01 11:12:00
5:32 AM,21.7,19.2,90,30.15,5.0,Calm,Calm,-,N/A,,Clear,0,2013-12-01 11:32:00
5:52 AM,20.3,17.6,89,30.15,5.0,Calm,Calm,-,N/A,,Clear,0,2013-12-01 11:52:00
6:12 AM,21.4,19.0,91,30.15,5.0,Calm,Calm,-,N/A,,Clear,0,2013-12-01 12:12:00
6:32 AM,19.4,16.9,90,30.15,4.0,Calm,Calm,-,N/A,,Clear,0,2013-12-01 12:32:00
6:52 AM,19.2,16.7,90,30.16,4.0,Calm,Calm,-,N/A,,Clear,0,2013-12-01 12:52:00
7:12 AM,17.2,14.4,88,30.16,4.0,Calm,Calm,-,N/A,,Clear,0,2013-12-01 13:12:00
7:32 AM,17.4,14.7,89,30.16,4.0,South,3.5,-,N/A,,Clear,180,2013-12-01 13:32:00
7:52 AM,19.2,16.9,91,30.16,3.0,Calm,Calm,-,N/A,,Clear,0,2013-12-01 13:52:00
8:12 AM,17.1,14.0,88,30.16,4.0,Calm,Calm,-,N/A,,Clear,0,2013-12-01 14:12:00
8:32 AM,19.2,16.7,90,30.15,4.0,Calm,Calm,-,N/A,,Clear,0,2013-12-01 14:32:00
8:52 AM,21.9,19.6,91,30.16,4.0,Calm,Calm,-,N/A,,Clear,0,2013-12-01 14:52:00
9:12 AM,24.4,22.3,91,30.17,4.0,Calm,Calm,-,N/A,,Clear,0,2013-12-01 15:12:00
9:32 AM,25.9,22.8,88,30.17,5.0,Calm,Calm,-,N/A,,Clear,0,2013-12-01 15:32:00
9:52 AM,26.8,23.4,87,30.16,5.0,Calm,Calm,-,N/A,,Clear,0,2013-12-01 15:52:00
10:12 AM,27.9,23.5,84,30.15,5.0,Calm,Calm,-,N/A,,Haze,0,2013-12-01 16:12:00
10:32 AM,30.0,25.3,83,30.16,5.0,Calm,Calm,-,N/A,,Haze,0,2013-12-01 16:32:00
10:52 AM,31.3,25.0,77,30.15,7.0,Calm,Calm,-,N/A,,Overcast,0,2013-12-01 16:52:00
11:12 AM,32.0,24.6,74,30.14,7.0,Calm,Calm,-,N/A,,Overcast,0,2013-12-01 17:12:00
11:32 AM,32.0,24.8,75,30.13,7.0,Calm,Calm,-,N/A,,Overcast,0,2013-12-01 17:32:00
11:52 AM,33.3,25.3,73,30.12,7.0,Calm,Calm,-,N/A,,Overcast,0,2013-12-01 17:52:00
12:12 PM,34.0,25.5,71,30.11,7.0,Calm,Calm,-,N/A,,Overcast,0,2013-12-01 18:12:00
12:32 PM,34.7,25.3,69,30.10,7.0,Calm,Calm,-,N/A,,Overcast,0,2013-12-01 18:32:00
12:52 PM,35.8,25.5,66,30.08,7.0,ENE,3.5,-,N/A,,Overcast,70,2013-12-01 18:52:00
1:12 PM,35.6,25.5,67,30.08,7.0,Calm,Calm,-,N/A,,Overcast,0,2013-12-01 19:12:00
1:32 PM,35.6,25.3,66,30.07,10.0,Calm,Calm,-,N/A,,Overcast,0,2013-12-01 19:32:00
1:52 PM,35.6,25.2,66,30.07,7.0,Calm,Calm,-,N/A,,Overcast,0,2013-12-01 19:52:00
2:12 PM,35.8,25.3,66,30.06,10.0,Calm,Calm,-,N/A,,Overcast,0,2013-12-01 20:12:00
2:32 PM,36.0,25.2,65,30.05,10.0,Calm,Calm,-,N/A,,Overcast,0,2013-12-01 20:32:00
2:52 PM,36.0,25.2,65,30.03,10.0,Calm,Calm,-,N/A,,Overcast,0,2013-12-01 20:52:00
3:12 PM,36.1,24.6,63,30.02,10.0,Calm,Calm,-,N/A,,Overcast,0,2013-12-01 21:12:00
3:32 PM,36.1,25.0,64,30.03,10.0,Calm,Calm,-,N/A,,Overcast,0,2013-12-01 21:32:00
3:53 PM,35.6,25.2,66,30.03,10.0,North,4.6,-,N/A,,Overcast,10,2013-12-01 21:53:00
4:12 PM,34.7,24.8,67,30.03,10.0,North,3.5,-,N/A,,Overcast,10,2013-12-01 22:12:00
4:32 PM,34.0,24.8,69,30.03,7.0,Calm,Calm,-,N/A,,Overcast,0,2013-12-01 22:32:00
4:53 PM,33.6,24.8,70,30.02,7.0,East,4.6,-,N/A,,Overcast,100,2013-12-01 22:53:00
5:12 PM,33.6,24.8,70,30.01,10.0,Calm,Calm,-,N/A,,Overcast,0,2013-12-01 23:12:00
5:32 PM,32.9,24.8,72,30.02,10.0,Calm,Calm,-,N/A,,Overcast,0,2013-12-01 23:32:00
5:52 PM,33.1,25.0,72,30.01,10.0,Calm,Calm,-,N/A,,Overcast,0,2013-12-01 23:52:00
6:12 PM,33.4,24.6,70,30.00,10.0,East,3.5,-,N/A,,Scattered Clouds,100,2013-12-02 00:12:00
6:32 PM,33.1,24.6,71,29.99,10.0,East,4.6,-,N/A,,Clear,100,2013-12-02 00:32:00
6:52 PM,32.0,24.4,74,29.99,7.0,East,3.5,-,N/A,,Scattered Clouds,100,2013-12-02 00:52:00
7:12 PM,32.0,24.8,75,29.99,10.0,Calm,Calm,-,N/A,,Scattered Clouds,0,2013-12-02 01:12:00
7:32 PM,28.8,23.2,80,29.98,7.0,Calm,Calm,-,N/A,,Mostly Cloudy,0,2013-12-02 01:32:00
7:52 PM,28.9,23.4,80,29.97,7.0,Calm,Calm,-,N/A,,Scattered Clouds,0,2013-12-02 01:52:00
8:12 PM,29.7,24.3,80,29.95,7.0,SE,3.5,-,N/A,,Clear,140,2013-12-02 02:12:00
8:32 PM,27.9,22.5,80,29.95,7.0,Calm,Calm,-,N/A,,Clear,0,2013-12-02 02:32:00
8:52 PM,25.2,21.4,86,29.94,7.0,Calm,Calm,-,N/A,,Clear,0,2013-12-02 02:52:00
9:12 PM,25.7,22.1,86,29.94,7.0,Calm,Calm,-,N/A,,Clear,0,2013-12-02 03:12:00
9:32 PM,26.6,22.8,86,29.95,7.0,Calm,Calm,-,N/A,,Clear,0,2013-12-02 03:32:00
9:52 PM,25.3,21.9,87,29.94,5.0,Calm,Calm,-,N/A,,Clear,0,2013-12-02 03:52:00
10:12 PM,24.3,21.2,88,29.93,5.0,Calm,Calm,-,N/A,,Clear,0,2013-12-02 04:12:00
10:32 PM,24.8,21.7,88,29.93,5.0,Calm,Calm,-,N/A,,Clear,0,2013-12-02 04:32:00
10:52 PM,22.1,19.4,89,29.92,5.0,Calm,Calm,-,N/A,,Scattered Clouds,0,2013-12-02 04:52:00
11:12 PM,23.0,20.7,91,29.92,5.0,Calm,Calm,-,N/A,,Mostly Cloudy,0,2013-12-02 05:12:00
11:32 PM,22.1,19.2,89,29.92,5.0,Calm,Calm,-,N/A,,Overcast,0,2013-12-02 05:32:00
11:52 PM,23.0,19.9,88,29.92,7.0,Calm,Calm,-,N/A,,Mostly Cloudy,0,2013-12-02 05:52:00